Location: Tuttlingen
(47.9853°N, 8.8165°E)
Time: 15:43:26
(UTC+01:00)

Tiangong 2 - Visible Passes

Search period start: 21 January 2018 00:00
Search period end: 31 January 2018 00:00
Orbit: 384 x 390 km, 42.8° (Epoch: 20 January)

Date Brightness Start Highest point End Pass type
(mag) Time Alt. Az. Time Alt. Az. Time Alt. Az.
21 Jan 4.2 05:20:02 13° SE 05:20:02 13° SE 05:20:47 10° ESE visible
21 Jan 2.7 06:52:22 10° SW 06:55:12 29° S 06:58:03 10° ESE visible
22 Jan 2.8 05:56:28 25° S 05:56:38 25° SSE 05:59:20 10° ESE visible
23 Jan 2.5 06:32:49 20° SW 06:34:25 32° S 06:37:18 10° ESE visible
24 Jan 3.2 05:36:50 24° SE 05:36:50 24° SE 05:38:39 10° ESE visible
24 Jan 2.7 07:09:26 10° WSW 07:12:12 27° S 07:14:58 10° SE visible
25 Jan 2.3 06:13:05 29° SSW 06:13:36 31° S 06:16:28 10° ESE visible
26 Jan 4.0 05:17:03 16° ESE 05:17:03 16° ESE 05:17:52 10° ESE visible
26 Jan 2.9 06:49:19 13° WSW 06:51:19 22° SSW 06:53:51 10° SE visible
27 Jan 2.8 05:53:17 25° S 05:53:17 25° S 05:55:29 10° SE visible
28 Jan 3.2 06:29:33 15° SW 06:30:23 16° SSW 06:32:27 10° SSE visible
29 Jan 3.8 05:33:34 14° SSE 05:33:34 14° SSE 05:34:20 10° SE visible
30 Jan 3.7 06:09:54 11° SSW 06:09:54 11° SSW 06:10:17 10° S visible
